sat.trackr.live / text

‹ back to catalog

KUIPER-00129

NORAD 65958 · 2025-228M

PAYLOAD ACTIVE UNKNOWN

§ Identity

Operator
Country
US
Launch date
2025-10-14
Launch site
AFETR
Launch vehicle
Mass (kg)
RCS (m²)

External: N2YO · Heavens-Above · Gunter

§ Orbital elements

Epoch: 2026-05-25T01:13:54.092928Z

Period
97.30 min
Inclination
51.9016°
Eccentricity
0.0000878
Mean motion
14.79942685 rev/d
Perigee alt
628.9 km
Apogee alt
630.1 km
Semi-major
7,007.6 km
B*
4.5622e-4
RAAN
10.4354°
Arg perigee
105.8019°
Mean anomaly
254.3040°
Rev number
3,471

§ Raw data

KUIPER-001291 65958U 25228M   26145.05132052  .00003259  00000+0  45622-3 0  99982 65958  51.9016  10.4354 0000878 105.8019 254.3040 14.79942685 34719

JSON: /api/v1/satellites/65958 · /tle

For live sub-satellite position, see the globe view (requires WebGL).

§ Visibility from observer

Set your observer location to see the next 7 days of passes ≥ 10°. The values pass through the URL so the page stays shareable.

No JS? Fill the form by hand. The geolocation button needs JavaScript.